This demonstration page uses our WeatherBlox Daily Observations layout. Learn more.

36.17497, -115.13722

Hourly Observations for October 1, 2018

Temp ( °F °C ) Dew Point ( °F °C ) Humidity (%) Winds ( mph kmh ) Pressure ( in mb ) Visibility ( mi km ) Precip ( " mm )
12:53 am 00:53 Clear 79 26.1 58 14.4 49 49 SE 9 15 29.83 1010 10 16.09344 0 0
1:53 am 01:53 Clear 78 25.6 56 13.3 47 47 SE 10 17 29.83 1010 10 16.09344 0 0
2:53 am 02:53 Clear 77 25 56 13.3 48 48 SE 7 11 29.83 1010 10 16.09344 0 0
3:53 am 03:53 Clear 75 23.9 57 13.9 54 54 ESE 7 11 29.83 1010 10 16.09344 0 0
4:53 am 04:53 Clear 74 23.3 58 14.4 57 57 ESE 10 17 29.85 1011 10 16.09344 0 0
5:53 am 05:53 Clear 74 23.3 58 14.4 57 57 E 9 15 29.85 1011 10 16.09344 0 0
6:53 am 06:53 Sunny 74 23.3 59 15 60 60 ESE 3 6 29.88 1012 10 16.09344 0 0
7:53 am 07:53 Sunny 75 23.9 61 16.1 62 62 SE 8 13 29.91 1013 10 16.09344 0 0
8:53 am 08:53 Sunny 77 25 60 15.6 56 56 ESE 8 13 29.91 1013 10 16.09344 0 0
9:53 am 09:53 Sunny 80 26.7 60 15.6 51 51 SE 13 20 29.91 1013 10 16.09344 0 0
10:53 am 10:53 Sunny 82 27.8 61 16.1 49 49 SE 12 19 29.91 1013 10 16.09344 0 0
11:53 am 11:53 Mostly Cloudy 85 29.4 60 15.6 43 43 SE 17 28 29.88 1012 10 16.09344 0 0
12:53 pm 12:53 Partly Cloudy 86 30 60 15.6 42 42 ESE 15 24 29.85 1011 10 16.09344 0 0
1:53 pm 13:53 Sunny 88 31.1 57 13.9 35 35 SSE 13 20 29.83 1010 10 16.09344 0 0
2:53 pm 14:53 Mostly Sunny 87 30.6 56 13.3 35 35 SE 16 26 29.83 1010 10 16.09344 0 0
3:53 pm 15:53 Mostly Sunny 87 30.6 55 12.8 34 34 SSE 16 26 29.83 1010 10 16.09344 0 0
4:53 pm 16:53 Sunny 87 30.6 55 12.8 34 34 S 10 17 29.8 1009 10 16.09344 0 0
5:53 pm 17:53 Sunny 85 29.4 54 12.2 35 35 S 13 20 29.8 1009 10 16.09344 0 0
6:53 pm 18:53 Clear 83 28.3 56 13.3 40 40 SSE 15 24 29.83 1010 10 16.09344 0 0
7:53 pm 19:53 Clear 82 27.8 56 13.3 41 41 SSE 12 19 29.83 1010 10 16.09344 0 0
8:53 pm 20:53 Clear 81 27.2 56 13.3 42 42 S 12 19 29.85 1011 10 16.09344 0 0
9:53 pm 21:53 Clear 80 26.7 57 13.9 45 45 S 8 13 29.85 1011 10 16.09344 0 0
10:53 pm 22:53 Clear 79 26.1 58 14.4 49 49 SSE 8 13 29.85 1011 10 16.09344 0 0
11:53 pm 23:53 Clear 77 25 59 15 54 54 SSE 6 9 29.85 1011 10 16.09344 0 0

Powered by AerisWeather